This is the latest recevied weather packets stored in our database for station/object K1LBG. If no packets are shown the sender has not sent any weather packets the latest 10 day(s).
| Time | Temp. | Humidity | Pressure | Rain* | Wind** | Luminosity | Snow |
|---|---|---|---|---|---|---|---|
| 1777995998 | 22.78° C | 63% | 1010.3 hPa | 0 mm | - | - | - |
| 1777994484 | 21.11° C | 64% | 1010.3 hPa | 0 mm | - | - | - |
| 1777992689 | 21.11° C | 64% | 1010.3 hPa | 0 mm | - | - | - |
| 1777991206 | 20.56° C | 64% | 1010.7 hPa | 0 mm | - | - | - |
| 1777990897 | 20.56° C | 67% | 1010.6 hPa | 0 mm | - | - | - |
| 1777989990 | 20° C | 67% | 1010.5 hPa | 0 mm | - | - | - |
| 1777986982 | 17.78° C | 76% | 1010.7 hPa | 0 mm | - | - | - |
| 1777986113 | 16.11° C | 77% | 1011.2 hPa | 0 mm | - | - | - |
| 1777984905 | 16.67° C | 76% | 1010.8 hPa | 0 mm | - | - | - |
| 1777984284 | 16.11° C | 77% | 1010.7 hPa | 0 mm | - | - | - |
| 1777983383 | 15° C | 81% | 1010.8 hPa | 0 mm | - | - | - |
| 1777982205 | 13.89° C | 84% | 1010.8 hPa | 0 mm | - | - | - |
| 1777981587 | 13.33° C | 86% | 1010.7 hPa | 0 mm | - | - | - |
| 1777979804 | 11.11° C | 91% | 1010.8 hPa | 0 mm | - | - | - |
| 1777977108 | 9.44° C | 94% | 1010.5 hPa | 0 mm | - | - | - |
| 1777975623 | 8.89° C | 94% | 1010.4 hPa | 0 mm | - | - | - |
| 1777974984 | 8.33° C | 94% | 1010.4 hPa | 0 mm | - | - | - |
| 1777973796 | 8.33° C | 94% | 1010.6 hPa | 0 mm | - | - | - |
| 1777969591 | 7.78° C | 92% | 1010.8 hPa | 0 mm | - | - | - |
| 1777966598 | 7.78° C | 91% | 1010.9 hPa | 0 mm | - | - | - |
| 1777963905 | 8.33° C | 90% | 1011 hPa | 0 mm | - | - | - |
| 1777962711 | 8.89° C | 89% | 1011.2 hPa | 0 mm | - | - | - |
| 1777961495 | 8.89° C | 89% | 1011.2 hPa | 0 mm | - | - | - |
| 1777960284 | 9.44° C | 87% | 1011.1 hPa | 0 mm | - | - | - |
| 1777959107 | 10° C | 86% | 1011.2 hPa | 0 mm | - | - | - |
* Rain latest hour (hover to see other rain measurements)
** Current wind speed in m/s (hover to see current wind gust speed)